Location: Antin
(43.3330°N, 0.2804°E)
Time: 23:45:18
(UTC+00:00)

SL-16 R/B - Pass Details

Date: 16 October 2021
Orbit: 842 x 846 km, 71.0° (Epoch: 04 December)

Event Time Altitude Azimuth Distance (km) Brightness Sun altitude
Rises 18:03:12 0° 149° (SSE) 3,386 5.1 -9.7°
Reaches altitude 10° 18:07:02 10° 123° (ESE) 2,458 4.1 -10.4°
Enters shadow 18:09:07 13° 101° (E) 2,252 3.8 -10.8°
